Regional Weather Roundup
Issued by NWS

Home | Current Version | Previous Version | Graphics & Text | Print | Product List | Glossary On
Versions: 1 2 3 4 5 6 7 8 9 10 11 12 13 14 15 16 17 18 19 20 21 22 23 24 25 26 27 28 29 30 31 32 33 34 35 36 37 38 39 40 41 42 43 44 45 46 47 48 49 50
336
ASUS43 KLOT 240003
RWRIL

ILLINOIS REGIONAL WEATHER ROUNDUP
NATIONAL WEATHER SERVICE CHICAGO/ROMEOVILLE IL
700 PM CDT MON APR 23 2018

NOTE: "FAIR" INDICATES FEW OR NO CLOUDS BELOW 12,000 FEET WITH NO
SIGNIFICANT WEATHER AND/OR OBSTRUCTIONS TO VISIBILITY.

* THESE STATIONS ARE NOT UNDER NWS QUALITY CONTROL. THEY ALSO MAY NOT
  REPORT WEATHER SUCH AS PRECIPITATION OR FOG.

ILZ001-002-007-009-015-016-024-240100-
NORTHWEST ILLINOIS

CITY           SKY/WX    TMP DP  RH WIND       PRES   REMARKS
MOLINE         FAIR      71  32  23 NE10      30.03S
6HR MIN TEMP:  69; 6HR MAX TEMP:  75;

STERLING*        N/A     65  32  29 MISG        N/A
SAVANNA*       FAIR      67  31  25 E10       30.07S
$$

ILZ003-004-008-010-011-017-018-240100-
NORTH CENTRAL ILLINOIS

CITY           SKY/WX    TMP DP  RH WIND       PRES   REMARKS
ROCKFORD       MOCLDY    65  27  23 NE10      30.09F
6HR MIN TEMP:  65; 6HR MAX TEMP:  71;

FREEPORT*      FAIR      63  31  29 NE10      30.10F
ROCHELLE*      FAIR      63  30  29 NE14      30.08S
DE KALB*       FAIR      64  31  29 NE12      30.09S
PERU*          FAIR      67  39  35 E15G21    30.06R
$$

ILZ005-006-012>014-019>023-240100-
NORTHEAST ILLINOIS

CITY           SKY/WX    TMP DP  RH WIND       PRES   REMARKS
CHICAGO-OHARE  CLOUDY    55  23  28 NE13      30.10S
6HR MIN TEMP:  55; 6HR MAX TEMP:  63;

CHICAGO-MIDWAY CLOUDY    55  27  34 NE12      30.10S
6HR MIN TEMP:  55; 6HR MAX TEMP:  64;

AURORA         FAIR      62  31  31 NE10      30.08S
6HR MIN TEMP:  62; 6HR MAX TEMP:  69;

LANSING*       DRIZZLE   48  37  64 NE7       30.11S
JOLIET*        CLOUDY    60  33  36 NE10      30.08F
WAUKEGAN       FAIR      55  23  28 N12G20    30.10S
6HR MIN TEMP:  55; 6HR MAX TEMP:  61;

DUPAGE AIRPORT FAIR      60  27  28 NE13      30.08S
6HR MIN TEMP:  60; 6HR MAX TEMP:  67;

KANKAKEE*      DRIZZLE   52  44  75 NE8       30.08S
WHEELING       FAIR      56  23  27 NE9       30.12S
6HR MIN TEMP:  56; 6HR MAX TEMP:  62;

MORRIS*        FAIR      61  35  36 E10       30.06S
ROMEOVILLE*    CLOUDY    58  32  37 E9        30.08F
NORTHERLY ISL    N/A     47  29  50 NW10        N/A
$$

LMZ740>746-240100-
SOUTHERN LAKE MICHIGAN

STATION/POSITION SKY/WX   TEMP    WIND        PRES    VSBY  WAVE
                          AIR SEA DIR/SP/G                  HT/PER
                          (F)     (DEG/KT/KT) (MB)    (MI)  (FT/S)
HARRISON CRIB              44     330/  7/  8   N/A
BURNHAM HARBOR             46     360/  5/ 15   N/A
CALUMET HARBOR             44     350/  8/ 10 1019.2S
BURNS HARBOR               42      CALM  /  3 1020.0S
MICHIGAN CITY              46     300/  2/  2   N/A
ST. JOSEPH                 45 42  260/  2/  4 1020.2R         1/ 3
$$

ILZ025>027-034>036-040-047-049-050-058-095>099-240100-
WEST-CENTRAL ILLINOIS

CITY           SKY/WX    TMP DP  RH WIND       PRES   REMARKS
QUINCY         CLOUDY    66  37  34 NE15      30.00S
GALESBURG*     FAIR      70  35  27 E8        30.04R
MACOMB*        CLOUDY    64  37  37 NE14      30.04S
JACKSONVILLE*  DRIZZLE   61  53  75 E13       30.00S
PITTSFIELD*    MOCLDY    64  54  70 E9        30.01R
$$

ILZ028>032-037-038-041>044-048-051>054-059>061-240100-
CENTRAL ILLINOIS

CITY           SKY/WX    TMP DP  RH WIND       PRES   REMARKS
PONTIAC        LGT RAIN  59  58  97 E12       30.06S
BLOOMINGTON    RAIN      56  54  93 E10       30.05R FOG
DECATUR        LGT RAIN  56  55  97 E13       30.01S
PEORIA         CLOUDY    66  37  34 NE12      30.03R
6HR MIN TEMP:  64; 6HR MAX TEMP:  70;

LACON*         FAIR      65  40  40 E10       30.03S
LINCOLN*       LGT RAIN  59  56  89 E8        30.02S
SPRINGFIELD    LGT RAIN  59  55  87 E9        30.01S
6HR MIN TEMP:  59; 6HR MAX TEMP:  70; 6HR PCP: TRACE;

TAYLORVILLE    RAIN      55  55  97 E8        30.01R
6HR MIN TEMP:  55; 6HR MAX TEMP:  60; 6HR PCP:  0.03;

$$

ILZ033-039-045-046-055>057-062-063-240100-
EAST-CENTRAL ILLINOIS

CITY           SKY/WX    TMP DP  RH WIND       PRES   REMARKS
CHAMPAIGN      LGT RAIN  56  55  97 NE12      30.03R FOG
DANVILLE*      LGT RAIN  55  55 100 E8        30.01S
RANTOUL*       LGT RAIN  57  56  99 NE10      30.04S
MATTOON        CLOUDY    55  54  96 NE12      29.99S
PARIS*         CLOUDY    56  55  94 NE9       30.02S
$$

ILZ079-100>102-240100-
SOUTHWEST ILLINOIS

CITY           SKY/WX    TMP DP  RH WIND       PRES   REMARKS
ALTON          CLOUDY    55  55 100 NE6       29.98S FOG
CAHOKIA*       CLOUDY    59  53  80 N10       29.97R
SPARTA*        CLOUDY    59  58  96 N9        29.95S
$$

ILZ064>066-069>071-074>076-080>082-084>086-088>090-092>094-240100-
SOUTH-CENTRAL ILLINOIS

CITY           SKY/WX    TMP DP  RH WIND       PRES   REMARKS
CARBONDALE     CLOUDY    58  54  86 CALM      29.92R
6HR MIN TEMP:  57; 6HR MAX TEMP:  65; 6HR PCP:  0.01;

CAIRO*         CLOUDY    59  57  93 CALM      29.90S
EFFINGHAM*     DRIZZLE   56  56 100 NE3       29.99S
MARION         MOCLDY    59  52  77 W7        29.93R
MT. VERNON     MOCLDY    61  56  83 NE8       29.94R
CENTRALIA*     CLOUDY    60  56  87 NE7       29.94F
SALEM*         DRIZZLE   59  56  87 NE6       29.96S
METROPOLIS*    CLOUDY    58  57  96 N3        29.90S
$$

ILZ067-068-072-073-078-083-087-091-240100-
SOUTHEAST ILLINOIS

CITY           SKY/WX    TMP DP  RH WIND       PRES   REMARKS
LAWRENCEVILLE  CLOUDY    59  55  87 MISG      29.96S
FLORA*         DRIZZLE   60  56  88 NE9       29.96S
FAIRFIELD*     CLOUDY    60  56  87 NE8       29.93S
HARRISBURG*    TSTM      58  58  99 NW3       29.93R VSB 3/4
ROBINSON*      CLOUDY    56  55  96 NE8       29.98S
CARMI*         MOCLDY    62  58  87 NE12      29.91S
$$

ABBREVIATIONS USED IN REMARKS
   TC - TEMPERATURE IN CELSIUS
  WCI - WIND CHILL INDEX
   HX - HEAT INDEX
  VSB - VISIBILITY
$$





USA.gov is the U.S. government's official web portal to all federal, state and local government web resources and services.